(84359) = 2000 CM122 = 2002 TQ83

Discovered at Haleakala on 2002-10-02 by NEAT.

Orbit

Orbit type: Main Belt

Note: WebGL enabled browser required.

epoch2024-03-31.0
epoch JD2460400.5
perihelion date2021-11-12.47915
perihelion JD2459530.97915
argument of perihelion (°)267.73761
ascending node (°)108.30430
inclination (°)5.48073
eccentricity0.1781530
perihelion distance (AU)2.0023060
Tisserand w.r.t. Jupiter3.5
ΔV w.r.t. Earth (km/sec)9.0
semimajor axis (AU)2.4363490
mean anomaly (°)225.35884
mean daily motion (°/day)0.25917590
aphelion distance (AU)2.870
period (years)3.8
P-vector [x]0.95672292
P-vector [y]0.29018348
P-vector [z]0.02178993
Q-vector [x]-0.27651167
Q-vector [y]0.88320294
Q-vector [z]0.37880584
absolute magnitude15.91
phase slope0.15
uncertainty0
referenceMPEC 2024-F28
observations used1063
oppositions19
arc length (days)14779
first opposition used1983
last opposition used2024
residual rms (arc-secs)0.69
perturbers coarse indicatorM-v
perturbers precise indicator003Ek
first observation date used1983-10-01.0
last observation date used2024-03-18.0
computer nameMPCLINUX
JD of orbit computation2456966.886679
perihelion JD uncertainty (days)8.7907E-05
argument of perihelion uncertainty (°)8.2053E-05
ascending node uncertainty (°)7.9725E-05
inclination uncertainty (°)6.0212E-06
eccentricity uncertainty 8.2069E-08
perihelion distance uncertainty (AU)1.9190E-07
Minimum Orbit Intersection Distances (in AU)
for orbit epoch: 2460400.5, reference: E2024-FB1
Mercury1.6529
Venus1.2779
Earth1.0126
Mars0.59418
Jupiter2.59873
Saturn6.57427
Uranus15.6253
Neptune27.7118

Observations

1096 total observations over interval: 1983 10 01.54024 – 2024 03 18.642654
These data are available for download (format description).

Date (UT) J2000 RA J2000 Dec Magn Location Ref
1983 10 01.54024 00 05 38.06 -10 41 03.9 18.0 V 260 – Siding Spring Observatory-DSS MPS 1759773
1983 10 01.58191 00 05 35.93 -10 41 16.5   260 – Siding Spring Observatory-DSS MPS 1759773
1993 03 23.20451 12 48 08.47 +03 45 54.8 18.6   809 – European Southern Observatory, La Silla MPS 63993
1998 07 31.24331 21 33 20.37 -19 09 19.7 17.8 R 699 – Lowell Observatory-LONEOS MPS 63993
1998 07 31.26810 21 33 19.13 -19 09 31.8   699 – Lowell Observatory-LONEOS MPS 63993
1998 07 31.29291 21 33 17.95 -19 09 45.2   699 – Lowell Observatory-LONEOS MPS 63993
1998 08 17.24653 21 18 33.31 -21 16 47.3 18.7   704 – Lincoln Laboratory ETS, New Mexico MPS 63993
1998 08 17.26742 21 18 32.32 -21 16 53.3 18.7   704 – Lincoln Laboratory ETS, New Mexico MPS 63993
1998 08 17.28847 21 18 31.06 -21 17 03.0 19.1   704 – Lincoln Laboratory ETS, New Mexico MPS 63993
1998 08 17.30940 21 18 29.88 -21 17 13.9 19.1   704 – Lincoln Laboratory ETS, New Mexico MPS 63993
2000 02 03.23580 09 05 23.34 +20 32 05.5 18.8   704 – Lincoln Laboratory ETS, New Mexico MPS 16861
2000 02 03.25047 09 05 22.41 +20 32 09.7 19.1   704 – Lincoln Laboratory ETS, New Mexico MPS 16861
2000 02 03.26510 09 05 21.48 +20 32 16.9 19.2   704 – Lincoln Laboratory ETS, New Mexico MPS 16861
2000 02 03.27973 09 05 20.50 +20 32 21.5 19.3   704 – Lincoln Laboratory ETS, New Mexico MPS 16861
2000 02 03.29439 09 05 19.63 +20 32 27.3 19.7   704 – Lincoln Laboratory ETS, New Mexico MPS 16861
2000 02 11.24324 08 57 17.96 +21 19 11.0 18.8   704 – Lincoln Laboratory ETS, New Mexico MPS 16861
2000 02 11.25776 08 57 17.11 +21 19 15.0 19.4   704 – Lincoln Laboratory ETS, New Mexico MPS 16861
2000 02 11.27238 08 57 16.29 +21 19 20.7 19.3   704 – Lincoln Laboratory ETS, New Mexico MPS 16861
2000 02 11.28691 08 57 15.40 +21 19 25.0 19.3   704 – Lincoln Laboratory ETS, New Mexico MPS 16861
2002 08 12.36271 00 22 48.81 -05 53 15.7 19.0   704 – Lincoln Laboratory ETS, New Mexico MPS 63993
2002 08 12.37723 00 22 48.87 -05 53 20.2 19.3   704 – Lincoln Laboratory ETS, New Mexico MPS 63993
2002 08 12.39180 00 22 49.00 -05 53 21.9 18.7   704 – Lincoln Laboratory ETS, New Mexico MPS 63993
2002 08 12.40744 00 22 49.05 -05 53 28.1 19.1   704 – Lincoln Laboratory ETS, New Mexico MPS 63993
2002 08 31.34747 00 19 49.63 -07 49 25.9 18.1 R 699 – Lowell Observatory-LONEOS MPS 63993
2002 08 31.36503 00 19 49.06 -07 49 33.8   699 – Lowell Observatory-LONEOS MPS 63993
2002 08 31.38260 00 19 48.52 -07 49 41.1   699 – Lowell Observatory-LONEOS MPS 63993
2002 08 31.40012 00 19 48.06 -07 49 49.1   699 – Lowell Observatory-LONEOS MPS 63993
2002 09 05.97510 00 16 55.55 -08 32 10.6 17.7 R 599 – Campo Imperatore-CINEOS MPS 63993
2002 09 05.99098 00 16 54.95 -08 32 18.0 17.7 R 599 – Campo Imperatore-CINEOS MPS 63993
2002 09 06.00471 00 16 54.44 -08 32 24.4 17.8 R 599 – Campo Imperatore-CINEOS MPS 63993
2002 09 06.01804 00 16 53.94 -08 32 30.6 17.6 R 599 – Campo Imperatore-CINEOS MPS 63993
2002 10 02.42585 23 57 00.90 -11 30 44.7 18.7   608 – Haleakala-AMOS MPS 63993
2002 10 02.43630 23 57 00.39 -11 30 47.3 18.5   608 – Haleakala-AMOS MPS 63993
2002 10 02.44706 23 56 59.85 -11 30 50.4 18.7   608 – Haleakala-AMOS MPS 63993
2002 10 04.17811 23 55 42.53 -11 38 16.2 18.1   704 – Lincoln Laboratory ETS, New Mexico MPS 63993
2002 10 04.19351 23 55 41.82 -11 38 19.9 18.3   704 – Lincoln Laboratory ETS, New Mexico MPS 63993
2002 10 04.20843 23 55 41.12 -11 38 23.7 18.1   704 – Lincoln Laboratory ETS, New Mexico MPS 63993
2002 10 04.22354 23 55 40.42 -11 38 27.1 18.1   704 – Lincoln Laboratory ETS, New Mexico MPS 63993
2002 10 04.23864 23 55 39.70 -11 38 30.0 18.2   704 – Lincoln Laboratory ETS, New Mexico MPS 63993
2002 10 05.23737 23 54 56.07 -11 42 26.3 18.5   704 – Lincoln Laboratory ETS, New Mexico MPS 63993
2002 10 05.25214 23 54 55.36 -11 42 29.4 18.3   704 – Lincoln Laboratory ETS, New Mexico MPS 63993
2002 10 05.26688 23 54 54.66 -11 42 33.0 18.5   704 – Lincoln Laboratory ETS, New Mexico MPS 63993
2002 10 05.28179 23 54 53.99 -11 42 35.4 18.5   704 – Lincoln Laboratory ETS, New Mexico MPS 63993
2002 10 05.29661 23 54 53.32 -11 42 39.8 18.4   704 – Lincoln Laboratory ETS, New Mexico MPS 63993
2002 10 10.21503 23 51 34.44 -11 57 54.6 17.8 R 699 – Lowell Observatory-LONEOS MPS 63993
2002 10 10.23348 23 51 33.71 -11 57 57.0   699 – Lowell Observatory-LONEOS MPS 63993
2002 10 10.25196 23 51 32.95 -11 57 59.8   699 – Lowell Observatory-LONEOS MPS 63993
2002 10 10.27041 23 51 32.21 -11 58 02.8   699 – Lowell Observatory-LONEOS MPS 63993
2004 01 22.35803 10 51 57.63 +12 34 10.1 20.1   704 – Lincoln Laboratory ETS, New Mexico MPS 96997
2004 01 22.37096 10 51 57.27 +12 34 13.3 20.8   704 – Lincoln Laboratory ETS, New Mexico MPS 96997
2004 01 22.38389 10 51 56.90 +12 34 19.0 20.4   704 – Lincoln Laboratory ETS, New Mexico MPS 96997
2004 01 22.39674 10 51 56.52 +12 34 23.0 19.9   704 – Lincoln Laboratory ETS, New Mexico MPS 96997
2004 02 11.45734 10 38 08.61 +14 48 48.2 19.1   644 – Palomar Mountain/NEAT MPS 98778
2004 02 11.46850 10 38 07.99 +14 48 53.4 18.9   644 – Palomar Mountain/NEAT MPS 98778
2004 02 11.48194 10 38 07.29 +14 48 59.1 19.3   644 – Palomar Mountain/NEAT MPS 98778
2004 02 17.27725 10 32 52.52 +15 30 40.6 19.3 C 704 – Lincoln Laboratory ETS, New Mexico MPS 293998
2004 02 17.28905 10 32 51.81 +15 30 47.2 19.5 C 704 – Lincoln Laboratory ETS, New Mexico MPS 293998
2004 02 17.30096 10 32 51.25 +15 30 51.2 19.9 C 704 – Lincoln Laboratory ETS, New Mexico MPS 293998
2004 02 17.32477 10 32 49.89 +15 31 00.6 19.7 C 704 – Lincoln Laboratory ETS, New Mexico MPS 293998
2004 03 19.21421 10 06 08.21 +18 18 22.4 19.9   644 – Palomar Mountain/NEAT MPS 102175
2004 03 19.23542 10 06 07.36 +18 18 26.0 19.8   644 – Palomar Mountain/NEAT MPS 102175
2004 03 19.25668 10 06 06.52 +18 18 30.1 20.0   644 – Palomar Mountain/NEAT MPS 102175
2004 03 20.22934 10 05 29.85 +18 21 20.0 20.2   704 – Lincoln Laboratory ETS, New Mexico MPS 102175
2004 03 20.24033 10 05 29.46 +18 21 21.2 20.9   704 – Lincoln Laboratory ETS, New Mexico MPS 102175
2004 03 20.26217 10 05 28.62 +18 21 24.5 20.2   704 – Lincoln Laboratory ETS, New Mexico MPS 102175
2004 03 20.27295 10 05 28.17 +18 21 26.0 20.5   704 – Lincoln Laboratory ETS, New Mexico MPS 102175
2005 05 16.32297 16 01 00.86 -13 51 09.2 18.8 R G96 – Mt. Lemmon Survey MPS 135280
2005 05 16.33091 16 01 00.37 -13 51 08.3 18.7 R G96 – Mt. Lemmon Survey MPS 135280
2005 05 16.33882 16 00 59.88 -13 51 07.2 18.9 R G96 – Mt. Lemmon Survey MPS 135280
2005 05 16.34676 16 00 59.41 -13 51 06.4 19.2 R G96 – Mt. Lemmon Survey MPS 135280
2005 05 19.32469 15 58 02.96 -13 44 56.8 19.1 R G96 – Mt. Lemmon Survey MPS 135280
2005 05 19.33124 15 58 02.56 -13 44 56.1 19.0 R G96 – Mt. Lemmon Survey MPS 135280
2005 05 19.33780 15 58 02.15 -13 44 55.2 18.7 R G96 – Mt. Lemmon Survey MPS 135280
2005 05 19.34436 15 58 01.75 -13 44 54.5 18.9 R G96 – Mt. Lemmon Survey MPS 135280
2005 06 09.22858 15 37 57.68 -13 15 28.2 19.9 V 691 – Steward Observatory, Kitt Peak-Spacewatch MPS 136419
2005 06 09.24594 15 37 56.76 -13 15 27.6 19.6 V 691 – Steward Observatory, Kitt Peak-Spacewatch MPS 136419
2005 06 09.26330 15 37 55.86 -13 15 27.1 19.7 V 691 – Steward Observatory, Kitt Peak-Spacewatch MPS 136419
2006 08 28.35492 02 54 13.16 +08 27 30.0 19.6 C 704 – Lincoln Laboratory ETS, New Mexico MPS 293998
2006 08 28.36590 02 54 13.69 +08 27 30.4 19.0 C 704 – Lincoln Laboratory ETS, New Mexico MPS 293998
2006 08 28.37688 02 54 14.38 +08 27 31.6 18.0 C 704 – Lincoln Laboratory ETS, New Mexico MPS 293998
2006 08 28.39879 02 54 15.35 +08 27 30.7 19.4 C 704 – Lincoln Laboratory ETS, New Mexico MPS 293998
2006 09 20.50321 03 07 13.72 +08 04 35.2 18.5 R 644 – Palomar Mountain/NEAT MPS 180508
2006 09 20.51323 03 07 13.82 +08 04 33.6 18.5 R 644 – Palomar Mountain/NEAT MPS 180508
2006 09 20.52445 03 07 13.90 +08 04 31.9 18.3 R 644 – Palomar Mountain/NEAT MPS 180508
2006 09 30.32913 03 07 20.85 +07 35 41.7 18.3 R 699 – Lowell Observatory-LONEOS MPS 183474
2006 09 30.35197 03 07 20.59 +07 35 36.3   699 – Lowell Observatory-LONEOS MPS 183474
2006 09 30.37484 03 07 20.31 +07 35 32.2   699 – Lowell Observatory-LONEOS MPS 183474
